Location: Unspecified
(43.4680°N, 87.1740°E)
Time: 16:23:53
(UTC+00:00)

ISS - Pass Details

Date: 28 September 2021
Orbit: 417 x 423 km, 51.6° (Epoch: 25 October)

Event Time Altitude Azimuth Distance (km) Brightness Sun altitude
Rises 12:46:14 0° 297° (WNW) 2,365 1.6 -9.6°
Reaches altitude 10° 12:48:42 10° 314° (NW) 1,502 -0.1 -10.0°
Maximum altitude 12:51:18 20° 5° (N) 1,029 -1.8 -10.5°
Enters shadow 12:53:53 10° 55° (NE) 1,496 -1.4 -11.0°
